Weather History for KSGF - May, 2012

Change the Weather History Date:

Sunday, May 20, 2012

  Actual Average Record
Temperature  
Mean Temperature 70 °F 66 °F  
Max Temperature 78 °F 76 °F 90 °F (1964)
Min Temperature 62 °F 56 °F 38 °F (1981)
Degree Days  
Heating Degree Days 0 2  
Month to date heating degree days 21 77  
Since 1 July heating degree days 3662 4551  
Cooling Degree Days 5 3  
Month to date cooling degree days 84 42  
Year to date cooling degree days 162 67  
Growing Degree Days 20 (Base 50)    
Moisture  
Dew Point 60 °F    
Average Humidity 73    
Maximum Humidity 93    
Minimum Humidity 52    
Precipitation  
Precipitation 0.63 in 0.16 in 2.20 in (1896)
Month to date precipitation 1.26 3.44  
Year to date precipitation 11.73 16.37  
Snow  
Snow 0.00 in - - ()
Month to date snowfall 0.0  
Since 1 July snowfall 2.8  
Snow Depth 0.00 in    
Sea Level Pressure  
Sea Level Pressure 30.07 in    
Wind  
Wind Speed 7 mph (SW)    
Max Wind Speed 17 mph    
Max Gust Speed 22 mph    
Visibility 9 miles    
Events Rain , Thunderstorm    
T = Trace of Precipitation, MM = Missing Value Source: NWS Daily Summary

Daily Weather History Graph

Daily Weather History Graph

Search for Another Location

Airport or City:

Trip Planner

Search our weather history database for the weather conditions in past years. The results will help you decide how hot, cold, wet, or windy it might be!

Date:

Astronomy

May. 20, 2012 Rise Set
Actual Time 6:00 AM CDT 8:19 PM CDT
Civil Twilight 5:31 AM CDT 8:49 PM CDT
Nautical Twilight 4:54 AM CDT 9:26 PM CDT
Astronomical Twilight 4:15 AM CDT 10:05 PM CDT
Moon 5:41 AM CDT (5/20) 8:19 PM CDT (5/20)
Length of Visible Light 15h 18m
Length of Day
14h 19m
Waning Crescent, 0% of the Moon is Illuminated
May 20
Waning Crescent
May 20
New
May 28
First Quarter
Jun 4
Full
Jun 11
Last Quarter

Hourly Weather History & Observations

Time (CDT) Temp. Dew Point Humidity Pressure Visibility Wind Dir Wind Speed Gust Speed Precip Events Conditions
12:52 AM 66.0 °F 57.9 °F 75% 30.03 in 10.0 mi Calm Calm - N/A   Clear
1:52 AM 64.9 °F 57.0 °F 75% 30.03 in 10.0 mi South 4.6 mph - N/A   Clear
2:52 AM 66.9 °F 57.0 °F 70% 30.02 in 10.0 mi South 8.1 mph - N/A   Clear
3:52 AM 68.0 °F 57.0 °F 68% 30.01 in 10.0 mi South 8.1 mph - N/A   Clear
4:52 AM 68.0 °F 57.0 °F 68% 30.01 in 10.0 mi South 11.5 mph - N/A   Mostly Cloudy
5:52 AM 68.0 °F 57.9 °F 70% 30.01 in 10.0 mi SSW 8.1 mph - 0.00 in Rain Light Rain
6:52 AM 66.9 °F 57.9 °F 73% 30.02 in 10.0 mi SSW 6.9 mph - 0.00 in   Clear
7:52 AM 66.9 °F 57.9 °F 73% 30.03 in 10.0 mi SSE 11.5 mph - N/A   Mostly Cloudy
8:52 AM 69.8 °F 57.2 °F 64% 30.10 in 10.0 mi SSE 10.4 mph - N/A   Mostly Cloudy
9:52 AM 72.0 °F 59.0 °F 64% 30.06 in 10.0 mi SSW 13.8 mph - N/A   Clear
10:52 AM 73.0 °F 61.0 °F 66% 30.07 in 10.0 mi South 9.2 mph - 0.00 in Rain Light Rain
11:52 AM 73.9 °F 59.0 °F 59% 30.10 in 10.0 mi WSW 9.2 mph - 0.00 in   Clear
12:52 PM 72.0 °F 60.1 °F 66% 30.11 in 10.0 mi SW 8.1 mph - 0.00 in   Overcast
1:52 PM 73.0 °F 59.0 °F 61% 30.10 in 10.0 mi WSW 8.1 mph - 0.00 in Rain Light Rain
2:52 PM 75.9 °F 59.0 °F 56% 30.06 in 10.0 mi Variable 3.5 mph - 0.00 in   Partly Cloudy
3:52 PM 75.9 °F 60.1 °F 58% 30.06 in 10.0 mi WNW 8.1 mph - N/A   Scattered Clouds
4:52 PM 77.0 °F 61.0 °F 58% 30.06 in 10.0 mi NNW 4.6 mph - N/A   Clear
5:52 PM 78.1 °F 59.0 °F 52% 30.06 in 10.0 mi West 3.5 mph - N/A   Clear
6:50 PM 75.2 °F 60.8 °F 61% 30.07 in 10.0 mi Calm Calm - 0.00 in Rain , Thunderstorm Light Thunderstorms and Rain
6:52 PM 75.0 °F 61.0 °F 62% 30.04 in 10.0 mi Calm Calm - 0.00 in Rain , Thunderstorm Light Thunderstorms and Rain
7:11 PM 68.0 °F 64.4 °F 88% 30.10 in 1.5 mi North 10.4 mph - 0.10 in Rain , Thunderstorm Heavy Thunderstorms and Rain
7:16 PM 66.2 °F 64.4 °F 94% 30.09 in 0.8 mi North 4.6 mph - 0.29 in Rain , Thunderstorm Heavy Thunderstorms and Rain
7:25 PM 66.2 °F 62.6 °F 88% 30.09 in 1.0 mi North 12.7 mph - 0.47 in Rain , Thunderstorm Heavy Thunderstorms and Rain
7:41 PM 66.2 °F 62.6 °F 88% 30.09 in 10.0 mi SW 12.7 mph 21.9 mph 0.63 in Rain , Thunderstorm Light Thunderstorms and Rain
7:50 PM 66.2 °F 60.8 °F 83% 30.09 in 10.0 mi WSW 4.6 mph - 0.63 in   Mostly Cloudy
7:52 PM 66.2 °F 60.8 °F 83% 30.09 in 10.0 mi West 3.5 mph - N/A   Scattered Clouds
8:52 PM 64.9 °F 62.1 °F 90% 30.08 in 9.0 mi WNW 3.5 mph - N/A   Clear
9:52 PM 64.4 °F 60.8 °F 88% 30.12 in 10.0 mi NNE 3.5 mph - N/A   Clear
10:52 PM 63.0 °F 60.1 °F 90% 30.12 in 10.0 mi Calm Calm - N/A   Clear
11:52 PM 63.0 °F 60.1 °F 90% 30.13 in 10.0 mi NNW 8.1 mph - N/A   Mostly Cloudy